Cloud_Cover
44 2 3 1 0 0 5 4 2 1 0 0 0 0 4 3 4 5 5 5 5 5 5 5 5 5 5 5 7 24 100 100
100 100 100 5 5 5 5 17 47 5 5 5 0 0 0 2 5 5 5 5 5 5 22 5 5 47 28 76 71 62 27 100
42 100 100 100 100 100 100 100 81 5 1 5 0 4 16 8 5 21 6 6 5 5 73 5 20 100 100 100 100 100 100 98
14 32 47 75 29 28 65 38 13 16 0 0 0 22 22 5 5 5 10 9 8 5 92 6 96 100 100 100 100 100 100 100
5 5 5 5 5 0 14 52 2 2 0 50 29 9 5 46 66 28 32 34 22 5 80 75 100 100 100 100 100 100 100 100
19 100 92 42 62 14 3 2 0 2 88 36 4 5 5 24 70 100 57 82 30 5 47 100 100 100 100 100 100 100 100 100
93 91 66 70 10 5 0 0 0 0 0 0 5 5 5 5 74 100 100 77 40 5 34 100 100 100 97 100 100 100 100 100
82 38 12 14 18 13 5 1 0 0 0 4 5 5 5 5 33 31 100 67 36 5 80 100 100 100 100 95 100 100 100 100
100 100 100 67 31 5 12 5 5 0 2 3 5 5 5 8 5 5 16 65 17 98 85 90 95 72 100 100 100 100 100 100
100 100 100 100 100 5 5 5 0 0 1 5 5 5 5 5 5 46 26 60 80 100 69 99 90 59 92 100 100 99 100 100
100 100 84 17 28 5 5 5 5 5 5 5 5 5 5 5 5 5 13 100 100 100 88 99 6 63 84 84 100 98 90 96
100 59 5 8 9 5 7 5 5 5 5 11 5 5 5 5 5 60 85 100 100 100 21 100 85 89 82 76 98 100 100 86
7 36 93 16 7 6 31 57 60 58 5 77 68 74 30 62 55 100 100 100 100 100 90 95 81 67 9 80 100 95 100 100
8 8 5 5 5 5 67 93 89 86 93 100 79 79 96 91 100 100 100 100 100 100 100 100 78 5 5 57 89 98 88 100
91 20 5 5 5 5 5 39 95 7 66 100 100 100 100 100 100 100 100 100 100 100 100 100 100 40 12 5 74 100 44 57
88 14 8 5 5 5 85 42 19 5 54 86 100 100 100 100 100 100 100 100 100 100 100 100 91 48 69 6 8 55 100 11
91 90 6 5 10 96 22 5 5 55 100 100 100 100 100 100 100 100 100 92 69 67 27 10 34 77 85 65 25 5 67 100
5 5 5 6 54 10 5 5 55 73 100 100 100 100 100 100 100 100 100 75 52 13 5 5 97 78 87 69 7 5 15 83
5 6 5 9 5 8 63 8 33 96 94 100 100 96 100 100 100 92 93 86 67 70 47 33 5 98 90 74 70 5 5 10